Lid_Strength_Index
7 7 7 7 7 7 7 6 6 5 5 4 2 1 1 2 1 2 1 1 1 1 2 2 2 1 1 2 2 2 3 5 6 6 6 5 7 6 7 6 6 6 5
7 7 7 7 7 7 7 7 7 6 5 5 4 4 4 3 1 1 2 1 2 2 2 2 2 1 2 1 1 3 3 3 4 6 6 8 7 8 7 7 7 7 6
8 8 7 7 7 7 7 7 6 7 7 7 7 6 6 6 5 4 3 1 1 2 2 2 2 2 2 2 2 2 2 3 3 4 5 8 10 11 12 12 11 10 10
8 8 8 8 7 7 7 7 7 7 7 7 7 6 6 6 6 5 4 3 1 1 1 1 1 2 2 2 2 2 2 2 4 4 4 10 10 14 14 11 13 15 13
9 9 9 8 8 8 8 8 8 8 7 7 7 7 6 6 6 5 5 4 3 2 1 1 1 2 5 3 2 2 2 3 4 5 6 13 13 16 11 13 9 13 14
9 9 9 9 9 9 9 8 8 8 8 8 8 7 7 6 6 6 6 5 4 3 2 2 1 6 7 8 7 5 3 3 4 5 5 8 7 7 12 11 10 15 13
10 9 9 10 10 10 10 10 10 9 8 8 7 7 7 6 6 6 7 5 4 3 3 2 2 2 5 3 6 6 6 5 4 3 6 6 6 8 9 12 12 13 13
11 11 11 11 11 11 10 10 9 8 8 8 7 7 7 6 7 7 7 5 4 3 2 2 2 2 2 3 3 4 4 4 4 4 3 5 5 8 7 8 11 15 15
12 12 11 11 11 10 10 10 9 9 9 9 8 8 8 8 8 7 7 6 5 4 2 2 2 2 4 7 5 4 5 5 5 6 5 5 8 9 10 12 14 13 16
13 12 11 11 11 10 10 10 9 9 10 10 10 9 10 9 8 8 8 7 7 6 5 4 7 5 5 7 5 4 5 6 9 12 12 10 10 11 11 9 11 13 16
12 12 12 12 11 10 10 9 10 10 10 10 10 10 10 10 10 9 9 10 10 9 7 5 4 5 7 7 7 5 5 11 11 14 14 14 14 14 14 15 14 12 14
13 13 13 12 11 10 10 10 10 10 10 10 10 10 10 10 10 11 11 11 10 10 9 7 5 8 8 8 7 6 10 11 13 13 14 15 15 16 16 16 16 16 15
15 15 14 13 11 10 10 10 10 10 11 10 11 11 11 11 12 12 12 12 11 11 10 9 10 10 10 9 9 10 13 13 14 14 15 15 16 17 17 17 17 17 17
18 16 14 13 12 10 10 10 10 10 11 11 11 11 12 12 13 13 13 13 13 13 13 13 12 13 12 13 13 12 13 13 14 15 16 16 17 17 17 16 18 18 19
18 17 15 14 12 11 10 10 10 10 10 10 10 11 13 13 13 12 12 14 14 14 14 14 14 14 15 15 15 15 15 15 15 15 16 17 18 18 18 18 18 18 20
20 19 17 16 14 12 11 10 9 9 8 8 8 10 12 11 11 11 12 12 12 12 14 15 15 15 15 15 15 15 15 16 16 16 17 17 18 18 18 18 18 18 20
22 21 20 18 16 14 11 11 11 10 9 9 9 9 10 11 11 11 12 12 12 13 14 15 16 16 16 16 16 17 17 17 16 17 17 17 18 18 19 19 19 19 19
24 23 22 20 17 14 11 11 11 12 13 13 12 11 12 12 12 12 13 14 17 17 17 17 17 17 17 17 17 17 17 17 17 17 17 17 18 18 19 19 19 19 20
24 23 21 20 17 14 12 11 12 13 14 15 15 14 15 15 15 15 15 18 19 19 19 19 18 18 19 19 19 19 19 19 19 19 19 18 18 18 19 19 20 21 23
23 22 21 19 16 14 13 13 14 15 16 16 16 17 16 18 20 20 20 20 20 21 21 21 21 20 20 20 20 20 20 21 21 21 21 21 21 20 22 22 22 24 25
23 22 20 19 17 16 16 16 16 17 17 17 16 16 17 21 23 23 23 23 23 23 22 22 22 22 22 21 21 22 23 23 23 24 24 24 24 25 25 25 26 26 26
23 21 19 19 19 20 20 19 19 18 20 20 19 18 18 22 24 24 24 24 25 25 24 24 25 25 24 24 23 23 24 25 26 26 26 26 26 26 26 27 27 28 28
20 20 21 22 22 21 22 21 21 20 21 21 20 21 21 23 24 25 26 25 25 25 25 25 25 26 26 25 25 24 24 26 26 25 26 26 27 27 27 28 28 29 30
22 21 22 22 23 23 22 21 20 20 21 21 22 22 24 25 26 26 26 26 26 26 26 26 26 27 27 27 26 26 26 26 25 25 25 26 27 28 28 29 29 30 30
24 24 23 24 24 23 22 21 22 22 22 23 23 24 24 25 26 26 26 26 26 27 27 27 27 27 27 27 27 26 26 27 27 26 26 27 28 29 29 29 31 31 32
24 23 24 23 22 22 22 23 23 23 23 23 23 24 25 26 26 26 26 26 27 27 27 27 27 27 28 28 27 26 25 26 28 27 27 27 28 30 30 31 31 32 33